Regional Weather Roundup
Issued by NWS Upton, NY

Home | Current Version | Previous Version | Text Only | Print | Product List | Glossary On
Versions: 1 2 3 4 5 6 7 8 9 10 11 12 13 14 15 16 17 18 19 20 21 22 23 24 25 26 27
000
ASUS41 KOKX 262109
RWROKX

REGIONAL WEATHER ROUNDUP
NATIONAL WEATHER SERVICE NEW YORK NY
500 PM EDT FRI MAY 26 2017

NOTE: "FAIR" INDICATES FEW OR NO CLOUDS BELOW 12,000 FEET WITH NO
SIGNIFICANT WEATHER AND/OR OBSTRUCTIONS TO VISIBILITY.

NYZ071-072-176-178-NJZ106-104-262200-
NEW YORK CITY METRO AREA

CITY           SKY/WX    TMP DP  RH WIND       PRES   REMARKS
Central Park   CLOUDY    72  55  55 MISG      29.65S
Wall St Helipt CLOUDY    74  54  49 VRB3      29.64S
Bronx Bot Gard   N/A     73  52  46 W9        29.65R
LaGuardia APRT PTSUNNY   74  52  46 W15       29.62R
Kennedy INTL   PTSUNNY   75  55  49 W14G28    29.63R
Breezy Point     N/A     72 N/A N/A NW7         N/A
Newark/Liberty PTSUNNY   74  54  49 W15G21    29.63R
Teterboro      CLOUDY    73  54  51 W12G21    29.61S
$$

NYZ177-179-078>081-262200-
LONG ISLAND NEW YORK

CITY           SKY/WX    TMP DP  RH WIND       PRES   REMARKS
Jones Beach      N/A     72 N/A N/A W16G23      N/A
Matinecock PT  NOT AVBL
Farmingdale    SUNNY     76  52  43 NW10G25   29.61R
MacArthur/ISP  MOSUNNY   76  53  44 NW21G28   29.60R
Shirley        MOSUNNY   76  57  51 NW13G21   29.61R
Mt Sinai Harb    N/A     73 N/A N/A W8G14       N/A
Westhampton    MOSUNNY   68  59  73 CALM      29.62S
East Hampton   CLOUDY    64  58  80 S6        29.60S
Montauk          N/A     62  57  83 CALM      29.63R
$$

NYZ052-065-067-262200-
HUDSON VALLEY

CITY           SKY/WX    TMP DP  RH WIND       PRES   REMARKS
White Plains   MOSUNNY   74  53  48 NW14G21   29.61S
Larchmont Harb   N/A     73 N/A N/A W15G21      N/A
Croton O-T Hud   N/A     72 N/A N/A NW15        N/A
Newburgh       NOT AVBL
Montgomery     PTSUNNY   72  54  53 NW13G23   29.62R
Poughkeepsie   CLOUDY    70  54  56 W12       29.60R
Albany         DRIZZLE   61  58  90 NW7       29.64R
$$

NJZ001-105-106-008-010-013-015-019>022-104-262200-
NEW JERSEY

CITY           SKY/WX    TMP DP  RH WIND       PRES   REMARKS
Newark/Liberty PTSUNNY   74  54  49 W15G21    29.63R
Teterboro      CLOUDY    73  54  51 W12G21    29.61S
Caldwell       CLOUDY    76  54  46 NW12      29.64R
Somerville     CLOUDY    71  56  58 VRB6G18   29.65R
Linden         CLOUDY    72  55  54 NW12      29.65R
Perth Amboy      N/A     70 N/A N/A NW12        N/A
Sussex         CLOUDY    72  54  53 W8        29.66R
Andover          N/A     71  54  54 VRB3      29.66R
Trenton        CLOUDY    72  56  57 NW10      29.67R
Millville      CLOUDY    73  59  61 W13G26    29.71R
Atlantic City  CLOUDY    73  57  57 W13G23    29.69
Wrightstown    CLOUDY    69  55  59 W14       29.66R
Toms River     CLOUDY    73  56  54 NW24G30   29.68R
Belmar         MOSUNNY   75  57  53 W14G23    29.66R
$$

PAZ047>061-062-071-262200-
EASTERN PENNSYLVANIA

CITY           SKY/WX    TMP DP  RH WIND       PRES   REMARKS
Philadelphia   PTSUNNY   74  54  49 W21G30    29.70R
Allentown      CLOUDY    72  55  55 NW12G18   29.69R
Scranton       CLOUDY    69  53  56 NW14G24   29.70R
$$

CTZ002-004>006-009-010-012-RIZ004-006-007-MAZ004-011-015-262200-
SOUTHERN NEW ENGLAND
 IN CT

CITY           SKY/WX    TMP DP  RH WIND       PRES   REMARKS
Bradley INTL   CLOUDY    63  56  78 NW9       29.61R
Hartford       CLOUDY    66  56  70 VRB5      29.60S
Danbury        CLOUDY    72  55  55 W8        29.62R
Wtrbury/Oxford PTSUNNY   68  54  60 NW9       29.62R
Bridgeport     CLOUDY    78  55  44 W12       29.59R
Meriden        CLOUDY    67  59  75 CALM      29.60S
New Haven      PTSUNNY   66  58  75 CALM      29.60R
Chester        LGT RAIN  63  59  88 CALM      29.62S
Groton         CLOUDY    61  56  83 S3        29.61R
Wilimantic     CLOUDY    63  56  78 NW3       29.62R

 IN RI

CITY           SKY/WX    TMP DP  RH WIND       PRES   REMARKS
Providence     LGT RAIN  58  56  93 W5        29.61R
Block Island   CLOUDY    60  54  80 SW10      29.63
Westerly       LGT RAIN  62  57  83 W3        29.62R
 IN MA

CITY           SKY/WX    TMP DP  RH WIND       PRES   REMARKS
Boston         CLOUDY    58  53  84 W9        29.59R
Worcester      LGT RAIN  55  52  89 W10       29.60R
Westfield      CLOUDY    62  57  83 CALM      29.60R
Provincetown   CLOUDY    51  49  92 N9        29.60R
Nantucket      CLOUDY    56  52  86 W14       29.60R
$$

ANZ330-335-338-340-345-350-353-355-262200-
COASTAL MARINE OBSERVATIONS


STATION/POSITION TIME  SKY/WX   TEMP    WIND        PRES    VSBY  WAVE
                                AIR SEA DIR/SP/G                  HT/PER
                 (UTC)          (F)     (DEG/KT/KT) (MB)    (MI)  (FT/S)
NY HARB ENTRANCE 1950            64 58  280/  6/  8 1003.2          5/ 8
20 S FIRE ISLAND 2050            60 56  240/ 10/ 10 1003.1          6/ 8
GREAT SOUTH BAY  2030            70 63  300/ 14/ 17   N/A
23 SSW MONTAUK P 1950            56 55              1003.2          7/10
15 E BARNEGAT LI 2030               59                N/A           6/ 8
HUDSON CANYON    1950            58 55  220/ 14/ 16 1004.3          6/ 8
KINGS POINT      2042            70 60  320/ 15/ 17 1002.7
EXECUTION ROCKS  2045            71                   N/A
CENTRAL LI SOUND NOT AVBL
EASTERN LI SOUND NOT AVBL
ROBBINS REEF     2042            72     300/ 18/ 19 1003.8
$$


>>>>>>>>>>>>>>>>>>>>>>>>>>>> KEY <<<<<<<<<<<<<<<<<<<<<<<<<<<
>                                                          <
>     SKY/WX - Sky Condition/Present Weather               <
>     TMP    - Temperature in Fahrenheit                   <
>     DP     - Dew Point in Fahrenheit                     <
>     RH     - Relative Humidity in Percent                <
>     WIND   - Direction (from) and Speed in MPH           <
>     PRES   - Mean Sea Level Pressure (inches of Hg)      <
>     WCI    - Wind Chill Index                            <
>     VSB    - VISIBILITY IN MILES                         <
>     HX     - HEAT INDEX                                  <
>     TC     - TEMPERATURE IN CELSIUS                      <
>     VRB    - VARIABLE WIND DIRECTION                     <
>                                                          <
>>>>>>>>>>>>>>>>>>>>>>>>>>>> KEY <<<<<<<<<<<<<<<<<<<<<<<<<<<




USA.gov is the U.S. government's official web portal to all federal, state and local government web resources and services.